[[{"header":{"parameterUnit":"m.s-1","parameterCategory":1,"la1":30.2991,"la2":30.254,"lo1":-89.0895,"lo2":-89.0444,"dy":0.0017,"dx":0.0017,"nx":28,"ny":28,"refTime":"2025-12-22T09:00:00:Z","depth":0,"parameterNumber":2,"parameterNumberName":"U-component_of_WINDS"},"data":[0,0,0,0,0,0,0,0,0,0,0,0,0,0,0,0,0,0,0,0,0,0,0,0,0,0,0,0,0,0,0,0,0,0,0,0,0,0,0,0,0,0,0,0,0,0,0,0,0,0,0,0,0,0,0,0,0,0,-2.3561,-2.3561,0,-2.3609,-2.3609,-2.361,-2.3593,-2.3592,-2.3591,-2.359,-2.3637,-2.3639,-2.3641,0,0,0,0,0,0,0,0,0,0,0,0,0,-2.3453,-2.3455,-2.3561,-2.3561,-2.3562,-2.3608,-2.3609,-2.361,-2.3593,-2.3592,-2.359,-2.3589,-2.3636,-2.3639,-2.3642,0,0,0,0,0,0,0,0,0,0,0,0,0,-2.35,-2.3456,-2.3561,-2.3559,-2.356,-2.3608,-2.3609,-2.361,-2.3593,-2.3592,-2.359,-2.3589,-2.3635,-2.3639,-2.3642,-2.3694,0,0,-2.3652,-2.3654,0,0,0,0,0,0,0,0,-2.3498,-2.3504,-2.3559,-2.3559,-2.356,-2.3593,-2.3589,-2.3638,-2.3594,-2.358,-2.359,-2.3588,-2.3624,-2.3628,-2.364,-2.3697,-2.3699,-2.3652,-2.3655,-2.3656,-2.3657,0,0,0,0,0,0,0,-2.3494,-2.3502,-2.358,-2.356,-2.356,-2.3556,-2.3561,-2.3598,-2.361,-2.3581,-2.358,-2.3586,-2.3623,-2.3637,-2.3641,-2.3699,-2.3652,-2.3655,-2.3657,-2.3659,-2.3802,-2.3804,0,0,0,0,0,0,-2.3491,-2.3499,-2.3578,-2.3581,-2.3524,-2.3559,-2.3564,-2.3584,-2.361,-2.3612,-2.3588,-2.3585,-2.3632,-2.3637,-2.3643,-2.3707,-2.3656,-2.3659,-2.3661,-2.38,-2.3802,-2.3804,0,0,0,0,0,0,-2.3489,-2.3498,-2.3576,-2.354,-2.355,-2.3562,-2.3585,-2.3586,-2.3599,-2.3615,-2.3616,-2.3599,-2.3631,-2.3638,-2.3682,-2.3708,-2.3661,-2.3664,-2.3798,-2.3801,-2.3803,-2.3834,0,0,0,0,0,0,-2.3486,-2.3498,-2.3518,-2.3541,-2.3552,-2.3615,-2.3586,-2.3588,-2.3605,-2.3603,-2.3626,-2.3628,-2.363,-2.3677,-2.3685,-2.3712,-2.3666,-2.3796,-2.3799,-2.3802,-2.3831,-2.3838,-2.3843,0,0,0,0,0,-2.3482,-2.3524,-2.3519,-2.3529,-2.3577,-2.3617,-2.3623,-2.3625,-2.3607,-2.3628,-2.3638,-2.3627,-2.3704,-2.3682,-2.3691,-2.3719,-2.3794,-2.3798,-2.3802,-2.3828,-2.3836,-2.3843,0,0,0,0,0,0,-2.3503,-2.3527,-2.3522,-2.3573,-2.3593,-2.3614,-2.364,-2.3633,-2.3658,-2.3655,-2.3656,-2.3661,-2.3707,-2.3717,-2.3692,-2.3771,-2.3746,-2.3752,-2.3763,-2.3771,-2.3777,-2.3774,-2.3669,0,0,0,0,0,-2.3514,-2.3545,-2.3563,-2.3606,-2.3617,-2.3627,-2.3644,-2.3644,-2.3664,-2.3673,-2.3686,-2.3706,-2.3734,-2.3753,-2.378,-2.3832,-2.3837,-2.3856,-2.3862,-2.3867,-2.3872,-2.3902,-2.391,-2.3817,-2.3817,-2.3817,0,0,-2.3536,-2.3553,-2.3572,-2.3611,-2.3627,-2.3658,-2.3634,-2.3668,-2.3691,-2.3677,-2.372,-2.3731,-2.3753,-2.3802,-2.3824,-2.3812,-2.3899,-2.3872,-2.3876,-2.3879,-2.3907,-2.3916,-2.3923,-2.382,-2.382,-2.3819,0,0,-2.3593,-2.3609,-2.3647,-2.3663,-2.3688,-2.3694,-2.3703,-2.3725,-2.3732,-2.3775,-2.3766,-2.3793,-2.3842,-2.3859,-2.3873,-2.3937,-2.3929,-2.3946,-2.3978,-2.4007,-2.4014,-2.4021,-2.4044,-2.4053,-2.3951,-2.3951,-2.3951,0,-2.3617,-2.3665,-2.3667,-2.3702,-2.3719,-2.371,-2.3748,-2.3764,-2.3795,-2.3807,-2.3794,-2.3856,-2.387,-2.3923,-2.3938,-2.395,-2.3961,-2.3943,-2.4013,-2.402,-2.4026,-2.4048,-2.4057,-2.3953,-2.3953,-2.3953,-2.3952,0,-2.3694,-2.3727,-2.3754,-2.3787,-2.3807,-2.3843,-2.3851,-2.3871,-2.3869,-2.3877,-2.3921,-2.3938,-2.3969,-2.3981,-2.3979,-2.4034,-2.4026,-2.4013,-2.3988,-2.4037,-2.4058,-2.4066,-2.3956,-2.3955,-2.3955,-2.3954,0,0,-2.3765,-2.3799,-2.3809,-2.3824,-2.385,-2.3875,-2.3911,-2.3942,-2.396,-2.3982,-2.4013,-2.4054,-2.4043,-2.406,-2.4059,-2.4084,-2.4135,-2.4068,-2.4069,-2.4081,-2.4197,-2.4208,-2.4217,-2.4129,-2.4131,-2.4132,-2.4195,0,-2.3824,-2.3889,-2.3892,-2.395,-2.3981,-2.3973,-2.4004,-2.4023,-2.4032,-2.4058,-2.4067,-2.4097,-2.4079,-2.4089,-2.4113,-2.4124,-2.4158,-2.4119,-2.4158,-2.4159,-2.4153,-2.4228,-2.4239,-2.4298,-2.4204,-2.4205,-2.4206,0,-2.3902,-2.3928,-2.399,-2.4013,-2.4026,-2.4055,-2.4084,-2.4109,-2.4131,-2.4135,-2.4155,-2.4151,-2.4188,-2.4162,-2.4212,-2.4186,-2.4202,-2.4209,-2.4211,-2.4216,-2.4186,-2.4235,-2.4317,-2.4326,-2.4219,-2.4218,-2.4217,0,-2.3949,-2.3999,-2.4043,-2.4056,-2.4084,-2.4104,-2.4116,-2.4137,-2.4155,-2.418,-2.4193,-2.4221,-2.4237,-2.4259,-2.4263,-2.4244,-2.4315,-2.4288,-2.4319,-2.4319,-2.4335,-2.4334,-2.4422,-2.4344,-2.4344,-2.4344,-2.4344,0,-2.4016,-2.4054,-2.4065,-2.4092,-2.4134,-2.4137,-2.4179,-2.419,-2.4209,-2.4237,-2.4231,-2.4258,-2.4262,-2.429,-2.4293,-2.4335,-2.4342,-2.4347,-2.4347,-2.4348,-2.4347,-2.4359,-2.4355,-2.4346,-2.4346,-2.4345,-2.4345,0,-2.4075,-2.4084,-2.4131,-2.4154,-2.4161,-2.4191,-2.4211,-2.4236,-2.4244,-2.4281,-2.4289,-2.4301,-2.4334,-2.434,-2.4378,-2.4381,-2.4431,-2.4427,-2.4424,-2.4424,-2.4455,-2.4452,-2.4553,-2.4567,-2.448,-2.4481,-2.4481,0,-2.4117,-2.4147,-2.4173,-2.4193,-2.4207,-2.4237,-2.4257,-2.4261,-2.4281,-2.4309,-2.4331,-2.4363,-2.4389,-2.4442,-2.4454,-2.4483,-2.448,-2.4513,-2.4484,-2.4484,-2.4482,-2.448,-2.4484,-2.4519,-2.452,-2.4521,-2.4522,0,-2.4192,-2.4195,-2.4223,-2.4254,-2.4278,-2.4301,-2.4324,-2.434,-2.4347,-2.437,-2.4404,-2.4424,-2.4464,-2.4496,-2.4525,-2.4538,-2.4531,-2.4531,-2.454,-2.4541,-2.4538,-2.4541,-2.444,-2.4528,-2.4528,-2.4527,-2.4527,-2.4527,-2.4244,-2.4271,-2.4294,-2.4326,-2.4344,-2.4366,-2.4391,-2.4403,-2.4431,-2.4465,-2.4465,-2.4502,-2.4523,-2.4563,-2.4577,-2.4606,-2.4595,-2.4608,-2.4611,-2.4615,-2.4618,-2.4533,-2.4611,-2.4611,-2.4611,-2.461,-2.461,0,-2.4319,-2.4334,-2.4364,-2.4396,-2.4422,-2.4414,-2.4439,-2.4461,-2.4494,-2.4515,-2.4541,-2.458,-2.4611,-2.4626,-2.4657,-2.4677,-2.4675,-2.4685,-2.4684,-2.4687,-2.4625,-2.4615,-2.4687,-2.4687,-2.4687,-2.4686,-2.4686,-2.4686,-2.4361,-2.4406,-2.4412,-2.4465,-2.4479,-2.4516,-2.4531,-2.4551,-2.4568,-2.4613,-2.4639,-2.4648,-2.4667,-2.4699,-2.4728,-2.4731,-2.4743,-2.4755,-2.4757,-2.4699,-2.4691,-2.4684,-2.4675,-2.4758,-2.4758,-2.4817,-2.4818,-2.4818]},{"header":{"parameterUnit":"m.s-1","parameterCategory":1,"la1":30.2991,"la2":30.254,"lo1":-89.0895,"lo2":-89.0444,"dy":0.0017,"dx":0.0017,"nx":28,"ny":28,"refTime":"2025-12-22T09:00:00:Z","depth":0,"parameterNumber":3,"parameterNumberName":"V-component_of_WINDS"},"data":[0,0,0,0,0,0,0,0,0,0,0,0,0,0,0,0,0,0,0,0,0,0,0,0,0,0,0,0,0,0,0,0,0,0,0,0,0,0,0,0,0,0,0,0,0,0,0,0,0,0,0,0,0,0,0,0,0,0,-0.24,-0.24,0,-0.2346,-0.2345,-0.2344,-0.2276,-0.2275,-0.2274,-0.2273,-0.2219,-0.2218,-0.2218,0,0,0,0,0,0,0,0,0,0,0,0,0,-0.2444,-0.2444,-0.24,-0.2399,-0.2399,-0.2346,-0.2345,-0.2344,-0.2277,-0.2275,-0.2274,-0.2273,-0.2219,-0.2218,-0.2218,0,0,0,0,0,0,0,0,0,0,0,0,0,-0.2411,-0.2444,-0.24,-0.2359,-0.2354,-0.2346,-0.2345,-0.2344,-0.2277,-0.2275,-0.2274,-0.2272,-0.2219,-0.2218,-0.2218,-0.2247,0,0,-0.2216,-0.2216,0,0,0,0,0,0,0,0,-0.2413,-0.241,-0.2365,-0.2361,-0.2357,-0.2316,-0.2341,-0.2311,-0.2277,-0.2306,-0.2273,-0.2271,-0.2253,-0.2249,-0.2242,-0.2244,-0.2242,-0.2216,-0.2215,-0.2215,-0.2215,0,0,0,0,0,0,0,-0.2415,-0.2412,-0.2379,-0.2365,-0.2359,-0.2342,-0.2336,-0.2335,-0.2289,-0.2304,-0.2299,-0.2293,-0.225,-0.2243,-0.2241,-0.2241,-0.2216,-0.2215,-0.2215,-0.2215,-0.226,-0.2261,0,0,0,0,0,0,-0.2424,-0.2414,-0.238,-0.2377,-0.2381,-0.2343,-0.2335,-0.2331,-0.2289,-0.2281,-0.2294,-0.229,-0.2245,-0.2242,-0.2239,-0.2267,-0.2215,-0.2215,-0.2214,-0.2258,-0.226,-0.2262,0,0,0,0,0,0,-0.2425,-0.2422,-0.2383,-0.2394,-0.2388,-0.2344,-0.2339,-0.2331,-0.2324,-0.2282,-0.2274,-0.2296,-0.2244,-0.2239,-0.2244,-0.2265,-0.2214,-0.2214,-0.2256,-0.2259,-0.2261,-0.2327,0,0,0,0,0,0,-0.2427,-0.2423,-0.2434,-0.2395,-0.2387,-0.239,-0.234,-0.2331,-0.2323,-0.2317,-0.2281,-0.2274,-0.2242,-0.2246,-0.2244,-0.2263,-0.2213,-0.2254,-0.2257,-0.226,-0.2323,-0.2331,-0.2339,0,0,0,0,0,-0.2429,-0.2455,-0.2434,-0.2431,-0.24,-0.2391,-0.2387,-0.2349,-0.2325,-0.2335,-0.2307,-0.2275,-0.2263,-0.2247,-0.2244,-0.2263,-0.2253,-0.2257,-0.226,-0.2319,-0.233,-0.2339,0,0,0,0,0,0,-0.2499,-0.2449,-0.2426,-0.2441,-0.242,-0.238,-0.2392,-0.2362,-0.2349,-0.2343,-0.2297,-0.229,-0.23,-0.2282,-0.2265,-0.2287,-0.2253,-0.2256,-0.2299,-0.2308,-0.2316,-0.232,-0.2213,0,0,0,0,0,-0.2516,-0.2513,-0.247,-0.2487,-0.2478,-0.2437,-0.2431,-0.2404,-0.2381,-0.2372,-0.2345,-0.2325,-0.2316,-0.2311,-0.2301,-0.232,-0.231,-0.2331,-0.2339,-0.2346,-0.2349,-0.2356,-0.2364,-0.2274,-0.2274,-0.2274,0,0,-0.2551,-0.2524,-0.2525,-0.25,-0.2481,-0.2478,-0.243,-0.243,-0.2427,-0.2372,-0.2375,-0.2354,-0.2328,-0.2339,-0.2343,-0.2324,-0.2372,-0.2351,-0.2356,-0.2356,-0.236,-0.2369,-0.2376,-0.2276,-0.2276,-0.2275,0,0,-0.2614,-0.2594,-0.2605,-0.2586,-0.2557,-0.2529,-0.2532,-0.2495,-0.2479,-0.248,-0.2438,-0.2434,-0.242,-0.2402,-0.2392,-0.2444,-0.2414,-0.2442,-0.2484,-0.2491,-0.2498,-0.2504,-0.2521,-0.2528,-0.2446,-0.2446,-0.2446,0,-0.2662,-0.2657,-0.2615,-0.2616,-0.2605,-0.2554,-0.2564,-0.2548,-0.2518,-0.2512,-0.2492,-0.2471,-0.245,-0.2455,-0.2468,-0.2461,-0.2462,-0.2447,-0.25,-0.2506,-0.2511,-0.2527,-0.2534,-0.245,-0.2449,-0.2449,-0.2448,0,-0.2716,-0.2712,-0.2725,-0.2695,-0.2686,-0.2692,-0.265,-0.2646,-0.2618,-0.2592,-0.2592,-0.2565,-0.2547,-0.2546,-0.252,-0.2547,-0.2536,-0.2509,-0.2473,-0.2524,-0.2538,-0.2544,-0.2455,-0.2453,-0.2452,-0.2452,0,0,-0.2824,-0.2769,-0.2774,-0.2759,-0.2722,-0.2718,-0.2721,-0.2702,-0.2699,-0.2679,-0.2679,-0.2667,-0.264,-0.2628,-0.2599,-0.2605,-0.2646,-0.2576,-0.2575,-0.2589,-0.2672,-0.2693,-0.2701,-0.2625,-0.2626,-0.2627,-0.2674,0,-0.288,-0.2881,-0.2842,-0.2854,-0.2849,-0.2799,-0.2801,-0.2778,-0.2753,-0.2744,-0.2716,-0.2708,-0.2674,-0.2666,-0.267,-0.2641,-0.2662,-0.2637,-0.2624,-0.2624,-0.2632,-0.2708,-0.2731,-0.2777,-0.2679,-0.268,-0.2681,0,-0.2946,-0.2928,-0.2939,-0.2899,-0.2896,-0.2898,-0.2876,-0.2869,-0.2841,-0.2822,-0.2807,-0.2773,-0.2772,-0.2738,-0.2734,-0.2718,-0.271,-0.2695,-0.2695,-0.2693,-0.2656,-0.2707,-0.2791,-0.2797,-0.269,-0.2689,-0.2688,0,-0.3022,-0.3001,-0.3004,-0.2993,-0.2947,-0.2949,-0.293,-0.29,-0.2891,-0.2872,-0.2865,-0.2846,-0.2836,-0.2822,-0.2783,-0.2762,-0.2783,-0.2747,-0.2767,-0.2768,-0.2774,-0.2774,-0.2857,-0.277,-0.277,-0.277,-0.277,0,-0.3088,-0.3097,-0.3037,-0.3039,-0.3047,-0.3001,-0.3009,-0.2985,-0.2958,-0.2954,-0.291,-0.2907,-0.2856,-0.2847,-0.2816,-0.2817,-0.2813,-0.2797,-0.2789,-0.2801,-0.2803,-0.2795,-0.2791,-0.2772,-0.2771,-0.2771,-0.2771,0,-0.3175,-0.3136,-0.3136,-0.3091,-0.308,-0.3087,-0.3048,-0.3048,-0.3019,-0.3014,-0.301,-0.2964,-0.2951,-0.2911,-0.2888,-0.2867,-0.2876,-0.2861,-0.2886,-0.288,-0.2902,-0.2901,-0.2983,-0.2991,-0.29,-0.2901,-0.2901,0,-0.3221,-0.3226,-0.3181,-0.3174,-0.3156,-0.3147,-0.3136,-0.309,-0.3081,-0.3048,-0.3051,-0.3033,-0.3017,-0.2998,-0.2962,-0.2944,-0.2927,-0.2957,-0.2924,-0.2935,-0.2927,-0.2927,-0.2926,-0.2965,-0.2966,-0.2967,-0.2968,0,-0.3304,-0.3283,-0.327,-0.3248,-0.3236,-0.3217,-0.3196,-0.3193,-0.3141,-0.3133,-0.3118,-0.3105,-0.308,-0.3063,-0.3038,-0.3017,-0.2984,-0.2978,-0.2982,-0.2994,-0.3008,-0.2999,-0.2905,-0.2977,-0.2976,-0.2975,-0.2975,-0.2974,-0.3371,-0.3372,-0.334,-0.3325,-0.3304,-0.3284,-0.328,-0.325,-0.3236,-0.3212,-0.3185,-0.3173,-0.3142,-0.3105,-0.3086,-0.3075,-0.3058,-0.3063,-0.3064,-0.3066,-0.3071,-0.3009,-0.3071,-0.307,-0.307,-0.307,-0.307,0,-0.3451,-0.3427,-0.3414,-0.3385,-0.3373,-0.3341,-0.3314,-0.3306,-0.3296,-0.327,-0.3254,-0.3235,-0.3217,-0.318,-0.3158,-0.3157,-0.314,-0.3152,-0.3152,-0.3147,-0.3089,-0.3088,-0.3166,-0.3166,-0.3166,-0.3166,-0.3166,-0.3166,-0.3492,-0.3492,-0.3467,-0.3454,-0.343,-0.3417,-0.3405,-0.3385,-0.3364,-0.3345,-0.333,-0.3305,-0.3273,-0.3249,-0.323,-0.3219,-0.3213,-0.323,-0.3215,-0.3161,-0.3152,-0.3143,-0.3142,-0.323,-0.323,-0.3273,-0.3274,-0.3274]}]]